Change the Weather History Date:

Saturday, October 13, 2012

  Actual Average Record
Temperature  
Mean Temperature 61 °F 62 °F  
Max Temperature 78 °F 78 °F 99 °F (2004)
Min Temperature 44 °F 45 °F 38 °F (2002)
Degree Days  
Heating Degree Days 4    
Month to date heating degree days 59  
Since 1 July heating degree days 139  
Cooling Degree Days 0    
Month to date cooling degree days 25  
Year to date cooling degree days 316  
Growing Degree Days 12 (Base 50)    
Moisture  
Dew Point 49 °F    
Average Humidity 71    
Maximum Humidity 100    
Minimum Humidity 42    
Precipitation  
Precipitation 0.00 in 0.06 in 3.14 in (2009)
Month to date precipitation T 0.46  
Year to date precipitation 18.79 22.99  
Since 1 July precipitation T 0.90  
Sea Level Pressure  
Sea Level Pressure 30.22 in    
Wind  
Wind Speed 3 mph (SW)    
Max Wind Speed 12 mph    
Max Gust Speed 15 mph    
Visibility 10 miles    
Events      
T = Trace of Precipitation, MM = Missing Value Source: NWS Daily Summary

Daily Weather History Graph

Daily Weather History Graph

Search for Another Location

Airport or City:

Trip Planner

Search our weather history database for the weather conditions in past years. The results will help you decide how hot, cold, wet, or windy it might be!

Date:

Astronomy

Oct. 13, 2012 Rise Set
Actual Time 7:18 AM PDT 6:35 PM PDT
Civil Twilight 6:52 AM PDT 7:01 PM PDT
Nautical Twilight 6:21 AM PDT 7:32 PM PDT
Astronomical Twilight 5:50 AM PDT 8:03 PM PDT
Moon 5:16 AM PDT (10/13) 5:21 PM PDT (10/13)
Length of Visible Light 12h 09m
Length of Day
11h 16m
Waning Crescent, 4% of the Moon is Illuminated
Oct 13
Waning Crescent
Oct 15
New
Oct 21
First Quarter
Oct 29
Full
Nov 6
Last Quarter

Hourly Weather History & Observations

Time (PDT) Temp. Windchill Dew Point Humidity Pressure Visibility Wind Dir Wind Speed Gust Speed Precip Events Conditions
12:53 AM 46.0 °F 43.9 °F 43.0 °F 89% 30.22 in 10.0 mi WNW 4.6 mph - N/A   Clear
1:53 AM 46.9 °F - 45.0 °F 93% 30.23 in 10.0 mi Calm Calm - N/A   Clear
2:53 AM 45.0 °F - 44.1 °F 97% 30.24 in 10.0 mi Calm Calm - N/A   Clear
3:53 AM 46.9 °F - 44.1 °F 90% 30.23 in 10.0 mi Calm Calm - N/A   Clear
4:53 AM 45.0 °F - 43.0 °F 93% 30.25 in 10.0 mi Calm Calm - N/A   Clear
5:53 AM 46.0 °F - 44.1 °F 93% 30.25 in 10.0 mi Calm Calm - N/A   Overcast
6:53 AM 46.0 °F - 44.1 °F 93% 30.26 in 10.0 mi Calm Calm - N/A   Partly Cloudy
7:53 AM 46.0 °F - 44.1 °F 93% 30.26 in 10.0 mi Calm Calm - N/A   Partly Cloudy
8:53 AM 51.1 °F - 48.0 °F 89% 30.28 in 10.0 mi Calm Calm - N/A   Partly Cloudy
9:53 AM 57.9 °F - 48.9 °F 72% 30.29 in 10.0 mi Calm Calm - N/A   Scattered Clouds
10:53 AM 64.9 °F - 48.9 °F 56% 30.27 in 10.0 mi Calm Calm - N/A   Scattered Clouds
11:53 AM 68.0 °F - 48.9 °F 50% 30.25 in 10.0 mi WSW 5.8 mph - N/A   Partly Cloudy
1:53 PM 75.9 °F - 52.0 °F 43% 30.19 in 10.0 mi Variable 4.6 mph - N/A   Clear
2:53 PM 78.1 °F - 53.1 °F 42% 30.16 in 10.0 mi SSE 5.8 mph - N/A   Clear
3:53 PM 75.9 °F - 55.0 °F 48% 30.15 in 10.0 mi WSW 9.2 mph - N/A   Clear
5:53 PM 73.9 °F - 55.9 °F 53% 30.13 in 10.0 mi West 10.4 mph - N/A   Clear
7:53 PM 62.1 °F - 55.0 °F 78% 30.14 in 10.0 mi SE 5.8 mph - N/A   Clear
10:53 PM 57.0 °F - 54.0 °F 89% 30.17 in 10.0 mi Calm Calm - N/A   Clear
11:53 PM 55.0 °F - 53.1 °F 93% 30.16 in 10.0 mi Calm Calm - N/A   Clear